Theta_e
294 295 295 296 295 295 294 294 294 293 294 293 288 289 293 293 287 285 292 294 292 294 296 298 299 300 300 301 302 303 304 305 306 305 305 305 306 306 306 305 304 304 305 305 304 303 302 300 299 299 299 299 300 299 300 300 300 300 300 300 299 298 297 296 296 296 295 294 293 292 291 291 289 288 287 286 286 285 285 285 285 285 284 284 284 283 284
291 293 294 295 293 293 293 294 294 295 295 294 293 292 294 293 292 293 293 294 293 296 297 299 300 302 302 303 304 304 304 305 305 305 306 306 306 306 307 308 308 307 306 306 306 306 303 301 300 298 298 298 298 298 298 299 299 299 299 298 298 297 296 295 295 296 294 293 292 291 292 289 288 287 286 286 285 285 285 285 285 284 284 284 283 283 283
287 291 293 294 293 293 291 293 293 293 294 294 295 294 294 295 293 294 294 293 293 298 300 300 302 303 303 303 302 303 304 304 304 304 304 305 306 307 310 308 308 307 305 305 306 305 304 302 301 299 299 299 298 298 298 298 298 298 299 297 296 296 295 295 295 295 293 292 292 290 290 289 288 287 286 285 285 285 285 284 284 284 284 283 282 282 282
285 289 290 290 291 291 290 289 290 291 291 289 292 292 295 293 290 293 293 290 291 297 301 302 302 302 302 301 302 302 304 304 304 303 304 304 305 305 306 307 308 308 306 306 305 304 304 303 302 301 299 299 297 297 297 297 297 297 297 296 296 295 295 295 294 294 293 291 291 290 288 287 287 286 286 285 285 285 284 284 284 284 283 283 283 282 282
284 289 290 289 289 288 285 286 290 292 293 294 295 295 297 296 296 291 288 290 296 298 300 299 300 301 301 302 302 303 304 304 304 304 304 305 305 305 306 307 307 308 309 308 307 307 305 304 303 302 301 298 297 297 297 297 297 296 296 295 295 295 295 294 294 293 292 291 290 289 288 287 286 286 285 284 284 284 284 284 284 283 283 282 282 282 282
285 288 288 289 285 278 280 292 296 296 293 294 292 292 294 297 297 294 296 297 299 300 300 299 299 300 301 302 304 305 305 304 304 305 305 305 305 306 307 307 307 308 308 309 309 309 307 306 304 303 300 299 298 298 297 297 295 295 295 294 294 294 293 293 293 292 291 289 288 288 287 287 286 285 284 284 284 284 284 284 283 283 283 283 283 282 282
285 288 287 284 277 280 292 296 298 298 297 297 295 296 297 298 298 298 297 298 298 300 301 301 301 302 303 304 304 304 304 305 305 305 305 305 305 306 306 307 307 307 308 308 308 305 304 304 302 300 298 298 298 297 296 295 295 294 294 294 293 293 292 292 291 291 290 289 288 287 287 286 285 285 284 284 284 284 284 283 282 282 282 282 282 282 282
288 286 284 277 279 288 294 296 297 299 298 298 296 294 297 298 298 299 297 298 300 300 301 302 303 302 303 303 303 303 304 305 305 304 304 305 305 305 306 307 307 307 307 307 306 305 304 301 299 298 297 297 296 295 295 294 293 293 292 292 292 292 291 291 290 290 288 288 287 286 286 285 285 284 284 284 284 284 284 284 284 283 283 283 282 282 282
281 284 283 282 290 289 290 292 294 295 293 293 292 287 292 298 299 299 298 299 300 301 301 302 302 302 302 300 302 304 304 306 306 306 305 306 306 306 307 306 307 307 307 306 305 303 300 299 297 297 297 295 295 293 292 293 291 291 291 291 291 291 290 290 289 289 289 288 287 286 285 285 284 284 284 284 284 284 283 283 283 282 282 282 282 282 281
288 283 281 282 282 279 285 293 297 300 300 300 300 294 290 299 300 302 300 299 300 301 301 301 301 301 298 295 298 303 304 305 306 306 306 306 306 306 306 306 306 305 301 296 296 298 296 295 296 295 294 294 293 291 291 290 290 290 290 290 291 290 290 290 289 289 288 287 286 285 285 284 284 284 284 284 284 284 283 282 282 282 282 282 282 282 281
286 283 280 279 278 282 290 292 295 298 299 300 300 293 287 296 298 299 301 300 301 301 300 300 300 296 292 294 298 303 304 304 304 304 304 304 304 304 304 303 302 299 296 295 293 294 294 292 292 293 292 291 291 289 289 289 289 289 289 290 290 289 289 289 289 288 288 287 286 285 285 284 284 284 284 284 284 284 284 283 282 283 282 281 280 281 280
285 283 281 279 285 284 289 291 294 295 298 302 295 283 284 296 298 299 299 298 299 300 300 300 299 295 293 295 299 304 304 302 303 304 303 303 302 302 299 294 294 293 292 292 291 291 291 292 290 290 290 290 288 289 288 289 288 289 289 290 290 290 289 289 288 287 287 286 286 285 285 284 284 284 284 284 283 283 283 283 282 281 281 281 279 279 280
284 284 282 285 285 291 293 294 297 298 301 298 286 280 289 297 298 300 300 299 300 300 299 299 295 299 301 302 303 304 297 298 298 298 295 294 293 294 294 293 289 292 292 293 292 291 291 290 289 289 289 289 288 288 288 288 288 288 289 290 289 289 288 288 287 286 286 286 285 285 285 284 284 284 284 283 283 283 282 282 281 280 280 280 280 279 279
283 284 281 282 286 292 296 297 298 300 294 285 284 294 298 298 299 300 300 300 300 300 300 299 300 301 302 302 302 298 296 297 297 295 293 293 292 290 289 288 289 291 290 289 289 288 288 289 288 288 288 287 287 287 287 287 288 289 289 289 288 287 286 286 286 286 285 285 285 285 285 285 284 283 284 284 283 282 282 281 280 279 279 279 279 278 278
286 285 282 280 277 290 298 296 295 297 288 290 297 298 298 298 298 299 298 299 300 301 300 301 301 301 300 298 297 297 295 294 295 294 293 293 292 291 289 288 288 289 288 288 287 287 287 287 288 287 287 286 286 286 286 287 288 288 288 287 287 286 286 285 285 285 284 284 284 284 284 284 283 282 282 282 282 282 281 280 280 279 279 279 279 278 278
282 282 279 280 288 290 294 293 289 292 295 295 293 294 293 298 298 296 297 298 299 299 299 299 300 299 298 298 297 296 295 294 292 292 292 292 291 290 289 289 288 287 288 287 286 286 286 287 287 287 286 285 286 286 285 287 287 286 286 286 286 285 285 284 284 284 284 284 284 284 284 283 283 281 281 282 282 281 281 280 279 279 279 279 279 278 277
287 284 288 291 292 293 294 293 293 294 296 297 295 294 294 293 296 296 294 295 297 297 296 296 297 297 297 297 296 294 295 294 292 291 291 290 290 289 288 287 286 286 287 286 285 285 286 286 286 286 286 285 285 284 285 285 285 285 285 285 284 283 283 283 283 283 284 284 284 284 283 283 282 282 281 282 281 281 281 280 280 279 279 279 279 278 278
291 290 290 292 291 291 292 294 293 292 293 295 294 294 293 294 294 294 293 293 294 294 294 294 296 296 296 295 295 294 294 293 292 290 289 289 288 287 287 285 285 285 285 285 285 284 284 285 285 285 285 286 284 284 285 285 285 285 284 284 283 283 283 283 283 283 283 283 283 283 283 284 283 282 281 281 281 281 281 281 280 280 279 279 279 279 279
285 281 292 290 289 291 292 292 293 294 294 293 293 292 292 293 294 294 295 295 294 294 293 293 293 295 296 295 295 294 293 291 291 290 288 288 287 287 285 285 285 284 284 284 284 284 282 284 284 284 285 285 285 285 284 285 284 284 283 283 282 283 282 282 283 283 283 282 282 283 283 284 283 282 282 282 282 281 281 281 281 280 280 279 279 279 279
282 282 287 288 290 290 291 292 292 293 294 295 294 294 294 295 295 295 295 295 293 294 292 293 294 294 295 295 294 294 294 292 290 289 288 287 286 286 286 284 284 284 284 284 283 282 282 282 282 283 284 284 284 284 284 284 284 284 283 282 282 282 282 282 282 283 282 279 281 283 283 283 282 282 283 283 282 281 281 281 281 281 280 280 280 280 280
283 286 287 288 290 290 291 293 293 294 294 295 295 295 294 293 293 294 295 295 294 293 294 294 294 292 293 294 294 293 293 292 290 289 288 287 286 285 284 283 284 284 284 283 283 281 280 279 280 280 281 282 283 283 283 283 284 283 282 282 282 282 282 282 282 282 282 282 283 283 283 282 281 282 282 283 282 281 281 283 283 282 281 281 281 281 282
280 281 284 287 282 282 287 290 292 292 293 293 294 295 294 294 294 295 295 295 295 294 294 293 293 291 292 293 294 293 293 293 292 289 287 285 285 284 284 283 283 283 283 282 281 279 277 277 278 277 278 279 281 282 283 283 283 282 281 281 281 281 282 282 281 281 282 282 282 282 281 279 278 278 279 282 282 281 279 281 282 283 283 281 281 281 280
279 284 286 288 288 287 289 291 292 293 294 294 293 294 295 296 296 296 295 294 294 295 295 296 292 291 291 292 293 292 292 292 290 288 286 284 283 282 283 282 283 282 282 281 279 277 276 276 276 276 276 277 278 280 282 282 282 281 281 281 281 281 281 281 281 281 281 281 281 280 280 279 278 277 277 279 281 281 281 280 281 281 281 281 281 281 279
285 287 287 288 287 286 288 291 293 294 295 294 293 293 294 295 295 295 295 295 294 294 294 294 294 292 291 291 291 290 290 290 287 286 285 285 284 283 282 282 282 281 279 278 277 276 276 275 275 275 274 275 276 278 280 281 282 281 281 281 280 281 281 280 280 280 280 280 279 279 279 279 279 278 277 276 277 280 281 281 281 281 281 281 281 281 280
284 289 289 290 290 291 293 294 294 295 295 295 293 292 293 293 294 294 294 294 294 293 292 292 292 291 288 288 288 288 289 288 287 285 284 283 283 282 282 282 281 280 279 278 278 276 275 275 274 274 273 272 272 274 277 280 281 281 281 281 280 280 279 279 279 278 278 279 279 279 278 278 278 278 277 276 275 275 277 281 281 281 281 281 281 280 280
290 290 290 291 291 291 292 293 292 293 294 294 293 293 292 291 291 291 291 292 292 292 291 291 291 291 289 288 288 289 288 286 285 284 283 282 281 281 281 281 280 279 278 277 276 275 275 274 274 273 272 270 270 270 272 277 280 280 280 280 280 279 278 278 278 278 278 278 278 278 278 279 279 278 277 277 275 274 273 274 274 276 279 279 279 279 279
289 289 289 287 287 288 290 288 288 292 292 293 293 293 294 294 292 291 291 291 290 290 290 290 290 289 287 287 287 287 286 284 283 283 283 282 281 281 281 280 279 278 277 276 275 274 273 273 272 271 269 267 266 268 272 277 278 279 279 278 278 274 273 275 278 278 278 278 278 278 278 278 278 277 277 276 275 274 274 273 273 272 271 273 276 277 276
288 289 288 283 283 285 286 289 291 292 292 292 293 292 293 292 290 288 288 288 288 288 287 287 286 286 285 286 285 284 284 282 281 282 281 281 281 281 280 279 278 276 275 274 273 272 271 272 271 269 267 266 266 267 273 276 277 277 276 276 276 275 276 276 277 277 277 277 277 277 277 277 277 276 275 275 274 275 274 273 272 270 270 270 270 274 276
281 274 274 275 276 277 279 282 285 290 292 293 293 292 291 289 288 288 289 290 290 290 288 287 286 286 286 286 285 284 282 282 281 281 281 281 280 278 277 276 275 274 273 272 272 271 271 270 269 268 267 266 266 268 272 275 275 275 275 275 275 274 274 275 275 275 275 275 275 275 275 273 273 274 275 275 274 274 273 272 270 269 267 267 268 270 271
271 272 270 271 273 276 278 281 283 286 288 290 290 290 291 290 289 289 290 290 290 289 289 288 285 284 285 285 284 284 283 282 282 282 281 280 277 275 274 273 272 272 271 270 270 270 270 269 269 268 266 265 266 269 272 274 274 274 274 274 274 274 273 272 272 272 272 271 271 271 272 272 272 272 272 272 272 272 271 269 268 267 267 267 268 267 267
268 268 269 271 273 277 279 278 279 280 282 285 286 287 289 290 289 289 289 290 290 290 289 287 286 285 284 285 285 285 284 283 282 281 278 276 274 273 272 273 273 272 271 270 270 270 269 270 269 267 264 264 266 269 271 272 271 271 271 271 271 271 271 272 273 272 270 269 270 271 271 271 271 271 270 270 270 270 269 268 267 267 267 267 268 267 267
264 266 268 273 275 272 271 272 272 273 274 275 275 275 278 281 284 287 288 288 288 289 288 286 285 285 285 284 284 283 281 279 277 275 274 273 273 272 272 273 275 273 273 270 269 269 269 268 266 264 263 264 267 269 270 270 271 271 271 269 269 270 271 272 271 270 269 269 270 270 269 270 269 269 269 269 269 268 268 267 266 266 266 266 265 265 265
263 265 269 269 266 265 266 268 268 268 269 270 271 272 273 274 276 281 285 288 288 288 287 286 286 285 284 283 281 279 277 275 274 273 271 271 271 272 272 272 271 271 269 268 268 268 268 267 265 263 263 264 266 269 270 271 272 271 271 270 270 270 268 271 270 270 269 269 269 269 269 268 269 269 269 268 268 267 267 266 266 266 265 265 264 264 265
262 263 264 263 262 262 262 263 265 265 266 268 268 269 270 273 275 277 280 284 286 286 286 286 286 283 281 280 278 275 273 272 271 271 270 270 270 270 268 268 268 267 265 266 266 266 265 264 263 263 264 265 266 267 269 270 271 271 270 270 269 268 268 268 268 269 268 268 267 266 267 267 268 267 266 266 266 266 266 265 265 264 264 263 263 264 266
261 261 261 261 262 262 263 263 263 263 264 263 264 266 269 270 270 273 276 278 281 284 286 285 282 279 277 276 275 273 273 274 275 272 270 269 268 266 265 265 264 264 264 264 264 263 263 263 263 263 264 265 266 266 268 269 270 269 269 269 268 268 267 267 268 267 267 266 266 266 266 267 266 265 265 265 265 265 265 264 264 263 263 262 262 262 264
259 258 259 259 260 261 261 261 262 262 262 262 263 265 265 266 267 269 272 275 280 284 284 282 279 276 275 275 274 273 273 275 273 270 268 267 266 265 265 264 264 264 263 262 262 262 263 263 262 262 264 264 265 265 267 268 269 269 268 268 267 267 267 266 266 265 265 266 266 265 265 263 263 264 264 264 264 264 263 262 262 262 262 261 261 261 261
258 257 257 258 259 259 259 260 260 260 261 261 262 262 263 264 266 269 272 275 279 281 282 279 276 275 275 275 275 274 274 273 271 270 268 266 265 266 265 264 264 264 264 263 262 261 262 262 260 261 263 264 263 263 263 263 267 267 267 267 266 266 265 265 265 265 264 264 263 262 262 262 262 262 262 263 263 263 262 262 262 261 261 260 260 259 259
256 257 257 257 257 257 258 258 259 259 260 260 261 262 263 263 265 267 269 272 275 278 279 277 276 276 275 273 273 273 273 270 269 267 265 264 265 265 264 264 264 265 266 264 261 261 262 260 260 262 263 263 262 262 262 262 263 266 266 266 265 265 264 264 263 263 263 262 261 262 263 262 262 262 262 262 262 261 262 261 261 260 259 259 259 258 259
255 256 257 257 257 257 257 258 258 259 259 259 259 260 261 262 263 265 267 270 273 274 274 274 273 272 271 271 271 269 268 268 266 265 264 264 265 266 264 261 260 261 261 261 261 260 260 261 262 262 261 260 260 260 260 261 262 266 266 265 265 264 264 263 262 261 261 261 262 261 262 262 261 261 261 261 260 260 259 260 260 259 259 258 258 258 258
255 255 255 256 256 256 256 256 257 257 258 259 259 259 259 260 261 263 265 268 270 271 273 273 272 272 270 270 267 266 266 265 265 264 264 265 263 259 258 257 257 258 259 258 259 259 259 259 260 261 260 260 260 260 260 261 262 264 265 264 264 263 263 262 261 261 260 260 260 259 260 260 260 260 259 259 259 259 258 258 258 258 258 258 258 258 257
254 255 255 255 255 256 255 255 255 256 257 257 258 258 258 259 260 262 265 268 269 271 272 272 272 271 271 268 265 263 263 263 264 264 265 263 263 264 261 256 256 257 258 259 258 258 259 260 261 261 261 261 260 259 261 260 262 263 263 263 262 262 262 261 261 261 260 260 260 260 260 259 259 259 258 258 258 258 258 258 258 258 258 258 258 258 257
254 255 255 255 255 255 255 256 256 255 256 257 257 257 257 258 259 261 264 266 267 268 269 270 269 270 267 264 263 262 262 262 263 262 262 262 264 264 259 255 255 256 256 257 258 259 260 260 260 259 260 259 259 257 258 261 262 261 261 261 261 260 260 260 260 260 260 260 260 260 259 259 259 258 258 258 258 257 257 257 257 257 257 257 257 258 258
255 255 255 255 255 255 256 256 256 256 256 256 256 256 256 257 259 260 262 262 263 263 263 263 262 262 262 263 262 261 259 259 259 258 256 256 256 258 258 255 255 255 256 257 259 259 259 259 259 259 258 258 258 257 258 261 261 261 260 260 260 260 259 259 259 259 259 259 259 259 259 259 259 258 257 258 258 257 257 256 257 257 257 257 257 257 256
255 255 255 255 255 256 256 256 256 256 256 256 256 256 255 256 257 258 259 260 260 260 261 261 261 261 261 261 260 258 259 259 260 259 257 256 256 255 256 256 255 255 256 257 258 258 258 257 256 256 256 256 257 258 260 261 260 260 260 259 259 259 258 258 258 259 259 258 258 258 258 257 258 259 258 258 258 257 257 257 257 257 257 257 257 257 257
255 255 255 255 256 256 255 255 255 255 256 256 256 255 255 255 256 256 257 258 258 258 259 260 260 260 260 260 259 259 259 259 260 261 261 258 255 254 255 255 256 256 256 257 257 257 257 256 256 256 257 257 258 258 261 260 260 260 260 259 259 258 258 258 258 258 258 258 258 258 258 258 258 258 258 258 257 258 258 257 257 257 256 256 256 256 256
254 255 255 256 255 255 256 256 256 256 256 255 255 255 255 255 255 256 256 256 256 256 257 257 257 257 257 257 257 257 257 256 255 255 255 257 257 255 255 255 256 256 257 257 257 256 256 256 256 257 257 258 258 260 260 260 260 260 260 259 259 258 258 258 258 258 258 258 258 258 258 258 258 258 258 258 258 257 257 256 256 256 256 256 256 256 256
254 255 255 255 255 256 256 256 256 256 255 255 254 254 255 256 256 256 256 256 256 257 257 257 258 258 259 259 259 258 257 256 255 255 256 255 255 255 255 256 256 257 258 258 257 257 257 257 257 257 258 258 258 260 260 260 260 260 259 259 259 259 258 258 258 258 258 258 257 256 255 256 257 257 256 255 256 256 256 255 255 256 256 256 255 255 254
254 254 254 255 255 255 256 256 256 255 255 254 255 255 256 256 256 256 256 257 257 257 257 257 257 257 257 257 258 258 259 258 255 255 256 256 257 257 257 257 257 256 256 256 256 256 256 257 257 257 258 258 259 260 260 260 260 259 259 259 259 259 259 258 258 258 258 257 256 257 257 256 256 256 256 256 256 256 256 256 255 255 256 256 255 255 255
254 254 254 255 254 254 254 255 255 255 255 256 256 256 257 257 256 256 256 256 256 256 256 256 256 257 257 257 257 258 258 258 258 256 257 258 257 257 257 257 257 257 257 257 256 256 256 256 257 257 258 258 259 259 259 259 258 258 259 259 258 258 258 258 258 258 258 257 257 257 257 257 257 256 256 256 256 256 255 255 255 255 255 255 255 255 255
254 254 254 254 253 253 253 253 253 254 255 256 256 256 257 257 256 255 256 256 256 256 256 256 256 256 257 257 257 258 258 258 258 258 258 258 258 258 258 258 257 257 257 257 256 256 256 256 256 257 258 258 258 258 258 258 258 258 258 257 257 258 257 256 255 255 255 256 256 256 256 256 256 256 255 255 255 255 255 255 255 254 253 253 254 254 254
253 253 253 253 254 253 253 253 253 253 254 254 255 256 256 255 255 255 255 255 256 255 254 255 255 256 256 257 257 257 258 258 258 258 258 257 258 257 257 257 257 257 257 258 257 258 258 258 257 257 257 258 258 257 257 258 258 257 256 257 257 257 256 255 256 256 256 256 256 255 255 255 255 255 255 255 254 254 254 254 254 254 254 254 254 254 254
253 253 253 253 253 254 253 253 253 254 254 254 254 254 254 255 254 254 255 255 254 253 254 253 253 254 255 255 256 256 257 257 257 257 257 257 257 257 257 257 257 257 257 256 256 256 256 256 255 255 255 257 257 256 255 255 256 256 256 255 255 256 256 256 256 256 256 255 255 255 255 255 255 254 254 254 254 254 254 254 254 254 254 254 254 254 254
Wind_Speed
13 14 12 8 10 8 7 9 9 11 14 11 13 14 19 17 13 17 14 13 16 21 24 25 20 16 17 18 17 15 15 11 3 4 5 5 6 8 8 9 8 9 9 9 9 8 8 7 7 8 7 8 9 8 7 8 8 9 8 9 10 10 10 10 10 9 9 9 8 10 10 10 10 10 11 10 9 8 8 8 7 6 5 8 8 9 8
13 14 15 12 14 14 13 13 12 11 11 16 19 20 21 22 19 17 18 22 25 23 24 26 20 16 19 19 16 14 13 8 7 5 6 7 9 10 11 11 11 12 11 13 13 10 9 10 9 9 9 10 10 8 9 9 9 9 9 10 10 10 10 10 9 9 9 9 9 10 11 10 10 10 10 9 9 7 9 8 7 6 5 7 7 8 7
10 15 14 13 13 12 14 12 11 10 12 14 19 19 18 15 18 21 24 23 24 23 22 21 22 21 16 17 19 19 18 14 12 12 14 13 15 16 15 14 14 12 13 13 13 13 13 12 12 11 10 10 8 8 8 9 9 9 9 9 10 10 10 8 8 8 8 9 10 10 10 10 10 10 9 8 9 4 6 6 8 7 7 9 9 8 8
9 13 14 16 13 12 13 13 13 14 19 20 15 13 12 13 16 20 18 17 19 23 19 15 21 22 18 20 21 18 16 16 16 15 15 16 18 20 22 21 19 16 14 13 14 15 14 11 9 8 9 7 8 10 9 9 9 8 9 9 10 10 9 8 9 9 8 9 10 10 10 10 10 7 8 8 7 6 6 6 6 6 8 9 9 7 6
12 17 12 12 10 7 9 13 19 22 19 17 14 13 15 21 21 16 14 18 18 21 20 18 20 22 20 20 18 15 16 16 16 16 17 17 19 20 22 21 21 20 18 17 16 15 9 7 11 11 9 9 11 11 9 8 8 9 10 9 9 9 9 9 9 9 8 9 10 10 10 10 8 7 7 7 7 7 8 7 7 8 6 8 8 7 7
8 13 9 5 8 14 13 13 19 16 19 18 18 18 22 23 17 15 18 18 18 18 20 23 23 23 18 17 18 16 14 13 13 14 16 18 18 19 20 21 20 19 18 16 13 10 11 11 11 8 9 11 9 8 8 8 10 9 10 10 9 9 9 9 9 9 9 7 8 9 9 8 8 8 7 8 7 6 6 6 7 6 6 7 6 6 7
10 9 6 10 16 12 11 12 9 13 17 18 22 24 24 22 21 19 20 22 24 27 25 24 24 22 20 17 17 18 17 14 13 15 17 18 18 19 20 20 19 18 18 16 8 4 7 8 4 6 6 7 7 7 8 9 9 9 9 9 9 9 9 9 9 9 9 9 7 8 8 9 9 8 9 7 8 6 7 8 9 9 9 9 7 6 5
7 10 10 14 4 2 6 9 13 12 16 20 18 19 20 23 23 22 23 25 27 26 26 25 21 21 19 15 17 21 21 16 16 19 19 20 20 20 19 18 17 15 14 14 11 11 4 4 5 6 6 6 7 7 7 8 8 8 9 9 8 8 9 9 9 8 9 9 7 7 8 9 9 9 9 8 9 6 5 4 4 5 4 5 7 7 7
11 8 13 18 9 15 6 7 9 12 13 12 15 14 16 21 21 20 21 25 26 25 23 22 19 15 11 13 19 24 18 15 16 19 20 20 20 20 19 17 18 14 9 7 5 1 3 4 5 5 5 6 6 6 7 6 7 7 8 8 8 9 8 9 9 8 9 10 7 8 8 9 9 9 9 7 6 5 6 4 5 6 6 5 5 6 6
10 14 14 11 10 15 10 17 18 14 12 14 12 13 15 11 13 15 21 24 25 25 21 18 16 9 9 13 18 24 13 10 16 17 17 19 19 17 16 15 14 8 1 3 4 2 2 3 2 4 5 6 6 6 6 6 7 7 7 7 7 8 8 7 8 8 9 7 7 7 8 9 9 7 5 4 5 5 7 7 7 6 4 4 4 4 5
10 12 14 12 13 9 3 12 12 11 10 10 5 8 15 8 16 16 18 19 21 20 16 15 13 8 10 14 18 20 14 10 10 13 15 16 14 12 13 10 7 1 1 2 3 3 3 4 4 5 6 7 6 6 6 6 6 7 7 7 7 7 7 7 7 7 7 7 8 8 8 8 8 9 8 6 5 5 5 5 5 4 5 5 5 4 4
14 14 15 16 7 8 6 7 7 4 2 5 5 13 12 11 21 18 14 18 19 14 14 15 13 10 12 15 17 17 15 6 5 8 11 10 7 7 2 2 2 3 4 3 2 4 4 4 6 6 6 6 4 6 6 6 6 6 7 7 7 7 7 7 7 5 6 8 8 9 9 8 7 7 6 6 6 6 6 4 5 4 5 4 6 4 4
15 19 16 10 9 8 10 15 15 3 1 6 12 16 5 9 10 10 14 17 14 13 17 12 10 12 15 15 16 16 6 5 4 4 6 4 5 6 5 2 3 1 1 2 3 4 4 6 6 6 6 7 6 5 6 6 5 6 6 6 7 7 7 7 5 6 6 7 8 7 7 8 8 7 6 7 7 6 6 5 6 6 6 4 4 4 3
15 12 16 11 10 2 2 12 16 3 5 12 16 10 8 8 9 8 11 14 13 11 13 11 11 11 14 15 10 6 6 2 1 3 4 4 2 2 3 3 1 1 2 3 4 4 3 4 5 6 5 7 6 7 6 5 6 6 7 7 7 7 5 6 7 7 7 7 8 8 8 9 8 7 6 7 7 8 5 6 8 7 6 5 5 4 3
8 10 14 12 11 4 7 6 8 4 9 6 9 12 10 1 5 7 9 9 7 6 9 11 12 11 7 5 6 6 5 4 4 4 3 4 3 2 1 1 0 1 2 3 3 4 3 4 4 3 6 7 5 5 5 6 7 7 7 7 7 6 7 7 7 8 8 9 8 7 7 8 9 8 7 8 8 7 7 7 7 6 6 5 5 5 4
10 9 10 6 1 0 4 6 4 4 6 11 13 10 13 16 12 10 12 11 9 7 7 8 9 7 6 6 5 6 7 5 5 3 4 4 3 1 0 1 2 1 4 4 4 4 3 3 3 3 7 7 6 6 6 6 6 6 5 6 7 8 8 8 8 7 7 7 7 7 8 8 8 9 8 8 7 6 7 7 6 6 5 5 4 5 5
6 5 5 1 3 2 3 1 4 8 10 9 7 7 7 7 11 10 10 13 17 12 7 8 9 8 3 4 4 4 7 6 5 5 5 4 3 2 2 2 2 1 3 5 5 3 4 4 3 3 4 8 8 8 5 5 6 7 8 9 9 9 9 8 8 7 7 7 7 7 7 8 8 7 9 8 7 6 7 6 6 6 5 5 5 5 5
4 6 9 11 5 5 10 5 4 10 12 12 9 8 6 9 10 9 10 10 12 11 8 8 8 5 3 4 6 6 7 7 4 4 3 3 3 2 1 2 3 2 3 3 4 5 4 3 4 2 2 6 10 6 7 6 7 9 9 10 9 9 9 8 8 9 9 8 8 7 7 6 7 7 8 7 7 7 6 6 6 6 5 5 5 5 4
6 5 3 2 8 9 8 13 13 9 8 10 9 6 5 8 10 11 10 10 9 7 5 6 8 11 9 8 10 11 8 7 6 5 5 5 4 5 3 4 4 2 4 4 4 4 4 2 2 2 3 2 5 6 7 7 9 9 10 11 9 9 9 8 9 9 9 7 7 7 6 6 6 6 5 5 6 6 6 6 5 5 5 6 5 5 5
6 7 10 16 16 16 15 13 10 11 11 5 3 7 7 9 10 11 12 9 11 6 5 8 9 11 12 12 13 12 11 10 6 4 5 6 5 5 4 5 5 5 5 6 7 5 4 3 2 2 3 4 5 7 7 8 9 10 11 11 9 9 10 9 7 8 8 10 9 7 6 6 6 6 4 4 5 5 5 6 6 6 6 6 5 5 5
9 12 14 16 16 12 11 9 7 7 9 9 11 9 7 8 10 13 13 8 9 8 10 9 7 11 14 13 11 13 12 11 10 9 8 5 4 3 6 5 7 9 10 9 7 7 5 3 3 4 5 5 6 8 8 8 9 11 10 10 10 10 9 8 8 7 7 7 7 7 7 7 6 4 3 4 5 5 5 2 2 3 4 4 3 3 3
10 10 10 8 12 11 10 12 12 12 11 9 11 12 12 10 11 12 13 14 11 10 11 11 11 13 14 14 9 11 13 12 12 10 8 6 6 6 3 3 5 5 8 11 12 10 5 3 4 5 6 5 5 7 7 7 8 11 11 11 10 9 8 8 8 8 7 7 7 7 7 7 8 9 13 14 7 4 3 8 12 12 8 3 2 3 4
10 10 12 10 13 14 14 15 16 15 9 9 10 12 10 13 14 15 15 15 16 15 14 10 10 12 12 16 13 12 12 13 9 7 8 8 8 7 6 6 6 7 7 7 8 10 8 6 7 6 6 5 5 5 5 6 8 10 11 10 8 8 8 8 8 8 8 7 7 7 7 7 6 8 7 9 15 14 12 10 12 13 12 12 10 7 5
16 14 17 16 14 14 16 17 15 13 11 10 10 11 13 14 15 15 14 13 15 16 15 15 9 9 11 11 8 10 11 7 4 5 4 4 4 5 6 9 8 7 8 10 10 10 6 7 8 8 7 5 4 3 4 5 7 9 10 10 8 6 6 8 9 8 5 8 8 8 7 7 7 7 7 9 9 12 13 12 13 13 13 13 13 13 12
14 13 13 14 15 14 12 14 14 14 13 10 11 13 15 17 17 14 13 14 13 12 13 15 12 6 8 10 6 7 10 6 4 5 4 4 4 5 6 9 10 11 6 2 4 4 5 6 7 8 8 6 4 2 3 4 6 8 8 8 10 10 9 9 7 9 7 7 8 8 8 8 7 8 7 8 9 8 10 15 15 14 13 13 12 11 11
10 11 13 14 14 15 13 14 17 18 17 16 14 13 15 15 14 13 13 13 12 11 11 13 13 8 5 7 6 6 5 5 4 5 5 6 6 6 7 12 11 9 8 5 4 4 6 6 6 7 8 6 3 2 2 4 6 7 7 8 9 9 8 10 10 8 8 8 8 8 7 7 7 8 7 8 8 8 8 6 8 12 14 13 12 13 12
11 12 13 15 15 15 13 15 15 19 20 18 18 16 13 13 12 10 10 10 11 11 11 12 11 7 3 5 6 5 6 2 3 5 5 6 9 7 6 6 9 9 7 6 5 4 5 5 6 7 6 3 0 1 3 4 7 8 8 8 7 9 12 9 8 8 8 7 8 8 7 7 7 7 8 7 8 8 8 8 8 7 5 6 8 9 8
14 12 8 10 12 12 13 16 17 18 20 17 13 13 13 11 7 9 13 14 14 11 10 8 7 7 8 5 4 5 3 7 9 6 9 11 8 6 7 9 9 9 8 6 6 6 5 5 7 9 6 1 1 3 4 5 8 9 9 10 9 9 7 8 7 6 7 7 7 8 8 7 6 7 8 8 6 6 6 6 6 7 6 4 4 7 12
7 8 8 6 9 12 14 15 18 19 20 20 19 16 12 13 14 14 15 18 18 14 10 10 6 7 7 5 6 8 9 8 9 10 12 8 5 6 8 9 7 7 8 7 5 6 6 6 6 9 6 2 2 4 4 6 8 10 10 9 10 9 7 6 7 7 7 6 6 6 6 7 7 7 7 6 4 6 5 6 6 5 6 5 5 5 6
11 11 10 13 13 14 16 16 16 17 19 18 18 17 16 17 15 16 17 18 18 16 15 10 5 8 9 9 10 11 14 14 9 7 9 10 10 11 10 8 8 6 5 5 7 7 7 5 7 9 5 2 2 3 4 6 7 8 8 8 9 9 8 8 8 8 8 7 7 9 7 5 3 4 6 6 5 5 5 6 7 7 7 5 5 5 5
14 13 13 12 14 11 10 12 13 15 16 16 19 21 20 16 16 17 18 19 17 14 13 10 9 11 10 12 11 10 9 7 5 7 6 7 9 10 10 13 15 14 12 9 6 5 6 8 6 5 2 1 4 5 6 8 8 8 7 7 6 8 9 9 8 5 5 6 6 6 5 5 4 6 5 6 6 6 5 5 6 5 4 4 4 3 3
16 17 16 9 5 9 13 10 10 12 14 13 15 16 17 18 20 19 17 17 17 16 14 11 11 14 13 9 7 6 6 6 5 7 7 7 8 5 5 9 9 4 8 10 9 9 9 8 8 4 1 2 4 5 6 7 5 4 5 6 5 5 6 9 7 7 4 5 5 5 3 6 6 5 5 5 5 6 7 7 6 5 4 4 3 3 3
10 16 18 15 16 15 12 11 7 14 15 14 13 13 13 15 18 21 20 19 18 15 12 13 13 12 8 7 8 7 7 6 6 7 7 7 7 8 8 4 3 7 9 9 9 6 7 8 6 3 3 1 3 4 5 6 5 5 5 5 5 6 7 7 8 7 7 6 3 3 4 3 4 5 5 5 6 5 6 6 5 5 4 3 3 3 3
6 8 11 10 8 11 15 19 15 13 15 15 14 14 15 14 15 18 20 21 20 18 16 15 13 6 5 8 8 8 9 8 7 9 10 10 9 8 6 5 8 11 9 7 6 4 4 4 4 4 3 1 1 1 3 3 4 4 5 5 6 5 5 4 6 5 5 5 5 5 6 5 5 3 4 4 4 4 5 5 4 4 5 4 3 3 4
9 12 12 13 12 13 14 15 17 16 15 17 19 19 17 14 17 19 22 22 22 20 16 12 7 6 7 7 9 11 13 16 15 11 11 10 10 9 8 9 8 8 8 6 5 5 4 4 4 4 3 1 2 1 2 5 6 6 7 8 7 5 5 4 5 3 4 4 4 4 4 4 4 5 5 5 4 4 4 4 5 5 5 5 4 3 3
9 11 10 10 11 12 14 14 14 16 17 18 18 18 17 16 15 16 21 23 21 20 16 13 7 6 9 11 11 13 15 12 9 11 11 11 12 11 12 12 11 8 7 6 4 4 4 4 3 3 3 2 2 3 3 4 5 6 7 6 5 4 4 5 6 6 4 3 4 3 4 6 7 4 4 4 4 4 4 5 4 4 4 3 3 3 2
8 11 11 11 11 11 13 14 14 15 16 17 18 18 19 19 17 19 19 19 20 18 15 9 6 10 14 14 11 9 9 7 8 9 11 10 10 12 10 10 12 17 13 12 6 5 4 4 4 5 4 3 3 3 5 6 4 4 4 4 4 5 5 5 4 4 4 3 4 6 7 5 4 3 3 3 3 3 3 4 3 3 3 3 3 3 2
11 11 12 12 12 13 13 13 14 16 18 22 20 17 18 19 19 18 18 18 18 16 11 9 12 12 8 5 7 9 8 7 9 10 12 13 11 11 7 9 9 7 10 10 8 7 5 5 4 4 4 3 3 3 4 7 8 5 4 4 4 4 4 4 4 3 4 4 4 4 4 4 4 3 3 3 3 3 3 3 3 3 3 3 3 2 2
10 9 9 10 12 12 14 13 13 13 14 19 20 17 14 15 19 17 17 17 14 9 7 9 5 5 7 9 8 6 7 9 11 12 12 12 8 10 9 5 5 5 5 8 9 6 6 5 4 5 4 4 4 4 5 6 6 5 5 4 5 4 4 4 4 4 4 4 3 3 5 4 4 4 4 3 3 3 3 3 3 3 3 2 2 2 2
10 11 13 13 13 13 13 13 13 12 13 13 15 17 15 15 15 14 16 16 12 6 7 6 8 9 9 8 8 8 8 9 10 10 11 11 12 12 9 8 8 7 8 9 8 6 7 9 7 5 4 4 3 3 3 5 6 4 5 4 4 4 4 4 5 5 4 3 5 5 4 4 4 4 3 3 3 3 3 3 2 2 2 2 2 2 2
12 13 12 12 13 12 13 14 14 13 13 14 13 14 13 14 15 15 15 13 10 7 7 6 8 7 8 8 9 10 10 9 9 8 8 9 11 10 10 7 3 5 6 6 6 7 7 6 5 5 4 4 4 4 4 5 6 4 4 4 4 4 4 4 4 4 4 4 3 4 4 4 4 4 3 3 3 2 2 2 2 1 1 2 2 1 1
12 12 13 13 12 12 13 13 13 13 13 12 13 13 14 15 14 14 12 9 7 6 5 4 3 3 7 9 11 11 10 10 11 10 8 5 3 7 9 5 3 4 8 8 8 7 6 6 5 5 5 5 4 6 7 4 5 4 4 4 3 3 4 4 4 3 3 3 4 4 4 4 4 3 3 3 2 2 2 1 1 1 0 0 1 1 1
12 14 14 13 13 13 13 13 13 13 14 13 13 13 14 14 13 11 9 7 6 6 7 8 9 10 8 9 12 13 11 11 13 11 11 9 10 9 7 7 6 5 7 6 6 6 5 5 6 5 6 6 5 8 8 6 5 5 4 4 4 5 3 4 4 3 3 3 4 3 3 3 3 3 3 2 2 2 2 1 1 1 1 1 1 1 1
13 12 12 13 12 13 13 12 12 12 12 12 12 14 14 13 12 11 9 7 6 7 7 7 8 7 6 6 9 9 7 6 7 5 6 6 9 11 9 8 6 6 7 4 6 6 6 5 5 7 10 9 9 9 5 5 5 4 4 4 3 4 4 4 4 4 4 4 3 3 3 3 2 2 2 2 2 2 1 1 1 1 0 0 0 1 1
12 12 13 14 15 13 11 10 10 11 10 11 12 12 13 14 14 13 10 8 8 8 8 8 7 5 4 4 5 7 7 6 4 2 4 6 9 5 4 6 7 5 6 8 6 6 6 5 7 9 9 10 9 9 6 5 4 4 4 4 4 4 4 4 4 4 4 4 3 3 3 2 2 2 2 1 1 1 1 1 1 1 1 1 1 2 2
12 12 12 13 12 12 11 10 10 9 9 9 9 9 11 10 10 10 10 11 9 8 8 10 10 8 6 6 6 7 9 8 8 8 6 5 4 7 7 6 5 6 9 10 7 7 7 9 10 10 9 9 8 6 5 5 4 4 4 5 5 4 5 4 4 4 3 3 3 3 2 2 2 1 1 1 1 1 0 0 0 1 2 2 2 2 2
11 11 12 12 12 11 11 9 8 8 9 9 8 8 10 11 10 7 8 11 10 9 9 9 8 7 6 7 6 6 6 6 8 9 9 9 11 11 9 9 9 9 8 7 7 6 6 7 8 9 9 9 8 5 5 5 5 5 5 5 5 4 4 4 4 3 3 3 2 2 3 2 1 1 1 1 1 1 1 2 2 2 2 2 2 2 3
11 11 12 14 14 14 11 9 9 8 9 8 8 7 8 9 10 9 8 8 9 8 7 7 7 7 9 9 9 8 6 4 8 8 7 9 9 9 7 6 8 11 13 12 12 10 13 11 10 9 9 8 5 5 5 5 5 5 5 5 4 4 4 3 3 3 3 3 3 2 2 2 2 2 2 2 2 2 3 2 3 3 3 2 3 3 3
13 12 11 11 11 13 12 9 9 8 8 8 8 7 9 9 8 8 8 8 8 6 8 9 10 10 9 9 9 8 9 9 6 7 6 7 7 8 9 10 10 10 8 8 8 7 8 10 9 9 8 7 5 5 5 5 4 4 4 4 4 3 3 3 2 2 2 2 2 2 2 2 2 2 2 2 2 2 2 3 3 3 2 2 2 3 3
10 9 8 8 9 9 10 9 9 8 8 8 7 7 8 7 6 7 7 7 7 6 7 8 8 8 9 8 8 9 9 11 12 11 10 9 9 9 8 8 8 10 9 7 7 7 6 8 8 7 5 5 5 5 4 4 4 4 4 3 3 3 3 2 3 3 2 1 1 1 2 2 2 2 1 2 2 3 3 3 3 3 5 4 3 4 4
8 8 7 8 8 7 10 9 8 8 8 8 8 7 7 7 7 7 8 8 6 7 9 9 9 8 8 9 9 9 9 10 10 11 10 9 9 9 9 8 8 7 6 6 6 5 5 5 5 4 5 5 5 4 4 4 4 3 3 2 2 2 2 2 2 2 2 2 2 2 2 2 2 3 3 3 3 3 3 2 2 3 4 4 5 5 5
8 7 7 7 7 7 7 9 10 9 8 8 8 8 7 7 6 6 8 11 8 8 7 7 9 8 7 7 8 8 8 8 7 8 8 8 7 7 7 8 7 6 6 5 5 6 5 5 5 6 5 4 4 4 4 3 2 2 2 1 1 0 1 0 1 1 2 2 2 2 2 2 2 3 3 3 3 3 3 3 4 4 4 4 4 4 4
Wind_Direction
265 270 271 262 276 262 254 243 228 207 206 203 208 225 233 231 228 244 255 259 251 257 263 270 270 277 277 276 278 279 270 261 180 196 239 254 252 252 234 230 234 244 237 228 225 211 208 198 200 205 205 210 210 211 193 182 180 187 177 181 189 192 193 196 197 188 186 185 180 179 182 186 184 180 184 180 176 170 173 182 187 172 164 175 180 187 184
277 276 271 268 267 270 262 254 254 256 224 205 209 222 226 228 237 248 259 263 262 261 264 270 280 283 279 283 290 289 274 221 220 210 227 233 246 251 240 229 212 222 233 238 233 216 206 200 203 202 201 206 209 202 194 185 180 183 179 186 188 191 198 200 193 189 185 177 178 178 185 178 176 170 174 174 165 163 176 180 185 163 143 168 185 187 187
267 268 268 267 259 260 260 257 257 250 258 247 219 220 229 234 242 244 246 251 262 262 259 274 280 273 278 278 271 269 261 252 235 237 249 247 249 247 246 251 247 234 230 232 232 223 216 207 204 206 200 201 196 200 202 186 179 179 181 185 191 193 201 195 190 187 183 175 176 181 181 172 174 172 161 148 168 160 170 173 172 167 154 173 185 190 192
252 247 249 255 253 245 248 256 249 240 236 238 236 232 225 227 234 237 242 251 254 263 269 262 269 274 270 269 270 268 264 254 253 254 250 252 258 260 261 261 262 260 249 240 231 227 219 201 192 194 197 182 176 204 197 187 175 170 184 189 189 192 192 188 188 189 186 174 180 181 173 167 167 168 164 165 171 161 169 167 169 164 175 185 184 187 188
238 252 232 243 247 249 245 235 236 232 230 233 238 244 238 232 232 239 239 240 246 258 269 270 264 266 267 267 268 267 260 259 260 261 257 254 255 256 259 258 257 255 251 248 243 240 216 197 205 206 182 177 200 199 188 179 158 173 186 188 189 187 185 185 188 185 182 176 178 172 171 166 168 164 162 164 165 164 172 169 160 174 178 170 181 183 183
252 253 253 231 234 233 228 224 230 217 222 224 228 232 233 236 228 232 239 250 256 263 264 261 261 262 261 267 268 263 268 274 273 263 257 257 257 257 258 256 256 258 261 263 258 226 211 207 210 200 178 192 193 178 176 165 166 176 180 187 187 184 180 183 184 180 178 168 169 163 156 160 155 155 158 167 166 164 160 155 165 169 171 178 176 181 184
245 264 261 252 232 234 229 237 233 218 221 220 221 226 232 237 237 240 247 251 252 250 253 259 262 266 270 265 272 278 273 271 269 267 264 261 258 257 261 262 262 262 263 263 257 204 212 206 171 144 169 180 167 164 168 167 170 171 182 181 184 180 177 175 173 174 168 163 160 154 156 154 156 156 160 157 159 156 159 169 173 176 177 179 183 178 179
262 260 248 250 195 165 236 245 225 209 207 218 229 244 243 244 242 237 236 240 245 248 251 253 256 261 269 278 273 268 268 265 267 266 262 261 260 260 261 263 264 262 260 257 243 238 194 152 162 167 174 163 159 170 162 163 164 171 175 177 175 174 173 173 173 167 161 161 158 155 152 156 160 160 161 160 161 151 138 134 128 146 156 167 174 177 176
240 233 242 248 303 291 232 252 230 209 212 205 212 237 237 235 235 235 240 245 248 250 251 256 261 267 278 278 273 263 256 260 255 258 262 262 261 259 261 260 264 266 265 267 282 334 108 140 144 167 153 150 158 149 157 160 154 162 165 173 177 170 166 167 166 158 159 157 155 154 155 158 162 160 158 155 144 131 145 137 142 162 168 171 169 167 166
213 233 250 256 246 249 236 233 246 237 225 229 226 233 253 249 244 230 234 238 245 248 250 254 261 268 263 262 264 268 260 238 253 255 260 260 259 259 263 267 264 269 358 62 57 77 107 126 133 128 136 147 151 143 147 149 150 163 168 174 174 167 167 160 160 157 156 156 151 150 152 157 159 150 136 112 133 141 154 156 159 162 143 101 105 156 164
226 228 236 240 242 241 232 256 253 254 250 247 249 242 255 232 250 236 235 242 245 246 253 259 255 247 251 254 261 272 279 255 251 255 254 259 259 255 257 267 282 359 96 88 103 114 139 149 140 134 142 146 136 140 142 148 156 161 172 173 166 158 155 151 149 139 144 147 145 145 151 154 152 151 152 143 134 139 140 138 132 108 125 129 144 122 159
231 241 242 244 238 259 252 271 268 264 240 231 221 251 247 233 240 245 241 243 245 250 247 246 245 230 245 251 260 269 279 298 258 244 261 278 291 283 312 64 56 62 82 104 122 153 175 160 130 144 143 139 133 133 140 145 156 165 166 163 147 143 139 137 129 130 136 138 142 146 147 143 143 141 133 125 136 139 140 126 123 125 138 132 152 152 148
230 233 250 257 256 260 273 272 277 271 181 189 224 236 247 236 247 243 245 248 241 233 246 239 247 232 239 252 261 269 20 6 355 356 18 15 16 357 10 39 68 112 151 187 186 167 148 133 141 146 145 133 138 137 138 145 158 154 149 138 137 140 135 125 121 125 129 138 136 133 136 135 135 131 133 132 134 126 135 119 123 128 135 117 92 98 101
235 234 241 242 264 253 296 245 257 239 113 230 245 254 278 292 275 256 253 258 248 228 230 237 240 247 244 247 271 338 359 10 329 4 337 339 339 51 34 32 34 139 132 102 91 85 95 131 143 145 138 138 134 135 140 144 146 138 130 129 125 118 115 117 122 122 122 120 124 126 127 130 132 126 115 117 123 130 121 124 133 130 129 118 122 115 115
239 238 247 243 242 105 232 289 279 131 231 282 296 318 324 335 295 268 262 259 261 211 228 234 243 250 277 336 332 320 335 328 319 320 310 284 286 291 105 175 178 123 121 125 118 117 117 130 138 134 134 132 129 134 132 133 127 122 119 116 112 110 112 113 115 117 120 125 125 126 131 131 128 120 117 123 127 122 119 110 112 112 124 129 130 127 126
248 227 227 236 107 191 6 16 293 7 315 340 331 343 318 329 326 334 329 325 342 354 326 303 291 295 302 311 327 322 305 279 260 268 264 276 275 206 173 100 146 151 133 122 118 112 124 122 121 128 140 132 135 127 121 119 108 106 105 105 106 109 110 110 111 110 114 115 114 118 121 118 117 120 124 123 123 121 124 128 132 131 132 126 125 135 144
234 258 266 358 327 325 330 332 262 283 303 315 315 299 291 291 307 337 322 319 322 332 298 266 265 282 294 273 287 278 286 286 246 240 238 245 268 261 220 171 127 155 143 139 128 121 116 112 112 113 140 139 137 130 120 114 119 116 114 113 113 111 113 114 110 111 112 111 114 116 119 123 120 116 122 128 126 127 129 131 135 143 150 155 160 161 161
263 240 248 271 298 344 321 317 263 289 300 295 299 291 298 293 283 273 272 282 297 316 348 324 308 281 292 287 272 269 276 263 241 214 228 219 215 191 156 122 153 131 110 106 123 128 121 115 116 115 135 147 140 134 131 130 124 123 122 120 109 117 119 116 118 118 113 110 112 117 117 118 119 128 135 136 132 138 143 145 149 150 153 156 160 156 160
325 269 164 138 305 303 314 317 307 277 241 259 283 305 277 268 276 273 268 266 246 237 261 267 281 295 294 283 293 301 292 259 240 222 219 224 210 203 183 179 133 127 133 136 133 126 117 101 90 99 132 128 126 125 127 127 127 126 124 121 113 116 122 116 120 122 121 123 121 118 117 117 116 122 130 130 131 141 148 147 149 148 150 156 156 158 165
254 276 305 303 304 296 299 298 304 302 307 306 231 224 256 262 264 269 270 269 274 259 257 246 256 266 275 282 288 293 292 284 253 212 215 209 195 199 184 149 160 142 139 140 138 135 128 103 81 74 94 112 123 124 123 130 130 127 127 130 125 123 127 129 126 128 121 119 121 122 120 117 118 120 123 125 130 137 152 152 155 154 153 156 158 163 160
278 284 283 281 276 269 268 271 279 303 305 305 301 286 257 259 268 277 281 270 266 273 264 271 261 273 274 269 270 273 276 277 265 236 222 202 185 166 162 180 183 176 163 155 139 122 112 80 84 77 87 90 120 128 131 135 138 132 130 127 125 126 126 126 125 121 122 129 124 121 114 92 71 67 113 132 117 79 44 65 117 150 146 137 148 151 144
274 269 290 305 293 301 294 285 292 297 299 297 292 293 291 284 288 290 297 297 284 266 263 255 252 264 270 277 267 262 261 255 254 239 220 195 178 178 153 156 201 184 174 157 147 138 114 104 93 100 121 120 125 133 137 143 142 136 134 131 129 130 131 127 128 126 125 122 120 115 107 105 102 80 58 57 61 99 90 67 65 60 66 91 104 118 105
260 278 271 275 283 282 285 291 291 289 291 291 292 289 283 292 293 297 297 296 296 289 281 268 255 265 269 282 286 278 269 264 253 214 191 189 190 171 159 157 190 191 172 160 145 141 138 134 126 118 119 127 131 137 141 147 143 141 139 136 134 134 136 140 139 136 131 124 123 117 116 116 107 106 98 69 72 82 90 88 85 83 84 82 80 86 104
264 269 277 275 268 270 279 277 278 278 284 290 284 279 282 281 282 289 291 285 283 286 289 290 276 256 270 276 289 280 277 270 210 202 210 210 191 162 157 158 157 164 163 157 163 144 136 133 133 142 137 135 135 137 143 144 149 149 151 145 138 138 127 128 129 125 106 121 125 126 122 122 118 120 111 106 86 78 89 92 91 93 93 90 86 89 101
265 263 264 272 277 279 278 285 285 284 281 280 279 282 279 282 283 284 287 287 281 281 285 287 288 258 246 270 261 259 264 240 199 187 171 152 159 178 176 153 166 169 181 45 96 119 133 139 140 143 134 132 118 126 134 151 157 153 151 145 139 133 127 130 121 124 122 122 129 129 135 131 131 129 127 127 120 109 81 82 89 99 99 96 98 103 110
250 257 267 273 275 279 286 286 281 281 279 275 271 266 267 266 268 277 276 275 278 278 276 278 282 270 202 241 240 233 236 229 198 152 168 178 171 175 199 190 163 136 132 135 133 137 142 144 137 134 134 135 129 130 203 158 155 149 142 137 138 140 140 140 136 135 135 137 137 137 137 139 139 137 136 133 135 126 128 122 84 72 77 86 98 105 106
274 277 281 280 276 274 270 270 280 284 284 283 278 275 268 275 283 281 282 279 274 274 269 271 277 285 236 240 244 240 220 169 140 202 200 188 192 191 172 136 131 122 129 127 131 125 130 125 128 130 127 92 357 301 243 170 145 134 128 125 122 121 130 134 137 139 141 139 140 139 141 142 138 137 132 133 135 141 147 140 136 132 124 84 79 100 111
269 277 313 302 296 304 310 305 293 285 288 289 288 283 284 288 293 288 285 283 277 264 256 255 257 255 252 234 191 223 176 183 199 200 199 211 192 149 151 125 120 125 129 135 135 137 136 145 129 116 140 185 250 262 226 169 145 136 131 129 129 128 131 133 130 133 135 136 138 141 145 140 132 123 129 134 143 146 141 125 123 128 122 102 78 79 100
338 6 348 326 302 302 307 307 307 297 284 281 281 281 280 280 279 277 276 274 274 276 266 252 226 232 234 217 194 201 199 209 203 202 200 187 157 139 115 122 112 99 110 124 136 150 155 158 163 150 165 170 266 268 212 167 150 142 138 139 134 130 132 131 128 122 120 118 121 124 114 118 119 124 127 129 127 128 124 128 130 120 118 131 128 109 75
332 327 334 313 310 316 317 312 303 300 299 298 297 292 287 283 278 273 272 273 273 267 260 255 219 227 217 217 211 202 196 200 204 179 176 169 145 136 133 117 104 94 107 159 175 167 167 163 160 155 149 148 217 252 212 156 134 136 133 135 141 139 137 132 125 120 116 113 116 118 119 110 103 110 125 127 131 130 130 132 132 134 138 145 141 140 136
313 308 303 305 303 308 313 310 315 314 316 317 317 312 302 290 280 277 275 275 274 270 263 249 235 236 220 220 216 213 213 210 195 186 173 164 152 147 150 155 156 174 187 172 149 139 142 137 141 148 105 179 234 211 168 143 131 121 113 104 99 105 111 116 123 121 117 118 125 127 116 118 114 124 127 131 125 124 119 124 132 129 130 136 140 133 128
315 309 306 302 334 337 319 310 309 305 303 309 313 307 311 316 311 300 289 281 275 269 268 257 240 238 232 219 208 195 186 170 154 155 160 163 166 163 165 183 182 136 128 135 140 145 143 133 144 135 139 228 222 205 172 149 139 127 122 125 116 121 119 116 116 114 96 109 115 105 108 120 127 125 118 130 130 132 137 134 132 133 136 135 124 114 118
326 320 315 331 341 324 308 303 317 309 309 307 297 292 295 292 292 294 295 292 290 286 272 258 250 244 225 191 187 184 169 151 147 146 161 170 165 171 174 153 94 125 125 110 109 123 124 133 125 121 171 246 255 219 176 157 140 119 121 111 107 110 119 113 111 114 111 113 103 109 122 108 122 135 137 129 128 130 129 129 127 130 126 118 111 114 138
288 269 284 308 298 296 305 305 309 303 296 292 285 289 291 288 290 291 290 291 289 286 275 263 258 241 192 190 185 170 156 147 164 184 181 170 166 156 132 99 101 96 90 92 95 89 87 93 117 143 160 170 345 212 151 130 91 86 105 110 116 112 108 110 124 113 109 101 93 115 110 114 123 103 108 113 121 122 125 128 127 127 123 116 116 128 146
285 285 286 284 283 277 278 278 288 294 296 295 296 293 289 286 291 291 290 288 285 280 279 278 253 203 186 183 182 184 185 197 197 174 166 158 155 147 127 111 100 98 98 83 76 79 77 100 119 130 136 73 80 26 67 110 115 104 119 104 109 105 109 115 117 103 103 106 107 110 118 114 97 100 107 113 113 116 118 117 125 130 129 129 126 113 97
295 292 293 289 284 282 279 278 278 281 284 282 281 286 292 290 289 286 285 283 283 281 275 259 224 190 192 195 196 197 202 203 176 166 162 158 158 147 142 134 129 117 111 97 69 84 93 97 87 102 110 84 66 29 61 99 108 97 108 109 94 90 86 78 81 73 85 103 108 91 82 91 98 98 104 102 101 107 115 120 121 115 115 116 125 122 113
295 293 292 291 287 285 284 283 283 283 280 280 283 287 288 289 289 290 289 285 281 276 268 245 206 205 210 208 205 201 199 184 171 166 163 153 150 154 150 139 144 146 145 142 158 124 117 108 115 106 91 83 71 57 74 103 100 89 82 79 80 100 103 104 102 100 94 72 71 93 107 104 91 91 90 96 106 103 109 116 105 100 100 103 108 122 121
298 292 288 287 289 287 284 283 283 281 283 284 281 280 285 292 294 295 292 285 277 268 253 221 217 217 207 177 182 188 177 144 148 149 153 155 159 144 143 146 153 149 140 127 128 128 114 113 120 91 87 89 93 76 79 97 108 101 93 96 94 96 95 100 101 94 98 97 100 105 108 106 111 109 103 91 91 100 102 99 103 105 102 110 113 125 146
299 290 284 290 295 292 289 287 286 281 282 287 292 290 288 292 292 295 289 284 280 271 236 224 205 183 184 177 176 143 127 144 145 147 154 157 157 132 113 66 35 16 56 106 118 100 107 107 98 90 84 77 73 59 72 76 78 82 85 88 91 95 96 94 92 93 94 106 103 101 109 112 107 103 104 101 97 91 88 90 104 108 115 124 139 157 164
305 310 308 309 303 302 301 296 294 289 288 289 292 296 304 301 295 296 293 291 289 284 257 220 191 189 173 164 144 137 138 138 141 141 147 150 133 108 103 69 50 62 78 80 84 84 88 89 87 89 96 96 82 87 72 82 84 77 82 86 87 87 83 91 97 99 104 94 102 104 92 101 99 100 97 102 102 102 102 105 104 116 122 132 146 160 153
311 311 311 306 304 306 303 301 301 303 303 299 300 300 305 302 300 296 292 297 307 317 306 286 211 167 154 144 136 123 118 115 115 118 130 142 140 144 122 103 82 66 72 69 87 93 91 93 100 101 96 88 81 97 104 79 69 67 73 72 80 92 102 99 100 99 109 111 112 109 108 104 101 101 98 98 96 99 101 107 115 125 144 152 168 162 174
310 310 307 309 306 306 299 297 297 303 306 309 307 311 311 310 302 297 304 309 315 335 340 343 346 125 123 118 116 115 110 114 115 106 99 103 130 141 110 86 78 77 90 86 86 83 80 75 73 82 89 87 89 79 80 81 74 72 72 72 71 72 82 88 92 86 88 91 90 92 96 102 102 101 100 96 98 103 107 108 108 121 120 140 167 182 177
317 316 314 313 308 300 295 298 300 300 305 313 319 320 318 315 312 312 317 333 353 18 46 46 50 71 95 121 123 114 97 101 105 102 81 57 42 38 91 108 105 98 89 84 84 81 76 72 72 70 81 91 102 96 81 75 76 76 76 83 93 93 82 80 84 89 91 92 92 92 93 97 99 104 109 115 116 113 120 131 152 164 159 173 184 191 207
317 317 316 308 300 302 303 301 304 311 313 317 326 326 326 327 330 329 335 349 12 25 41 56 62 64 72 98 109 107 103 112 116 112 102 91 66 51 58 93 96 89 82 85 84 80 79 75 77 91 92 90 84 75 79 74 75 78 85 83 83 86 90 88 84 87 90 90 90 95 93 87 93 103 114 120 126 125 135 149 159 162 152 156 186 214 210
321 321 314 308 306 307 306 308 316 320 319 320 322 328 335 337 342 345 350 8 20 27 40 51 44 52 70 82 90 88 81 68 59 110 117 117 107 86 63 82 92 93 90 90 78 80 80 82 92 94 91 88 85 82 78 76 74 78 85 81 77 78 76 77 80 79 77 81 82 84 90 94 90 93 100 99 97 130 152 171 192 183 182 214 203 211 217
323 317 312 313 314 314 315 317 317 323 328 331 337 347 352 344 346 354 3 13 31 35 45 61 66 58 52 66 72 76 74 66 53 40 22 8 85 121 120 96 100 102 96 89 81 82 83 90 87 87 90 87 85 79 76 81 84 83 76 80 76 78 80 78 75 78 79 83 88 94 102 102 96 104 105 124 129 152 143 123 165 216 210 219 226 221 229
321 323 321 322 322 324 327 327 327 335 347 358 3 355 347 349 352 4 9 18 32 37 36 42 46 38 34 39 61 76 79 77 60 40 53 70 77 85 94 92 101 98 91 87 89 86 96 92 87 82 81 77 76 78 80 78 79 78 79 80 82 77 81 82 88 87 93 91 90 87 85 91 109 119 130 146 167 193 200 194 212 216 212 209 217 220 227
335 333 333 336 337 339 342 352 1 4 6 10 358 346 344 345 349 359 7 21 30 37 38 39 40 36 29 32 28 28 33 61 91 66 62 80 89 98 94 88 86 84 85 82 80 81 84 87 83 78 78 78 78 76 78 78 79 81 85 86 88 94 96 103 106 109 107 110 119 144 155 158 165 168 174 181 195 185 191 201 211 220 222 212 213 226 220
342 342 340 346 352 353 354 359 7 7 2 350 349 348 348 345 350 1 3 2 16 31 38 35 34 35 38 33 38 37 43 34 54 106 98 80 84 87 94 94 87 83 82 84 83 80 74 78 78 76 69 70 74 75 73 75 72 78 82 89 87 91 97 103 110 119 122 132 150 147 170 162 174 176 190 198 199 204 199 210 220 218 219 226 229 232 233
351 351 356 359 2 3 2 6 9 359 352 352 357 355 350 354 12 5 8 9 18 31 46 45 40 34 36 38 43 47 49 64 71 77 82 81 82 80 80 80 83 77 79 84 85 88 81 78 67 61 59 70 68 70 68 72 79 78 78 84 85 89 80 84 80 88 107 130 154 169 176 180 191 191 204 209 218 214 215 213 214 223 227 236 242 245 246
0 4 358 356 359 0 3 7 2 356 355 354 350 354 2 22 24 16 5 2 11 40 50 49 42 36 37 43 44 42 50 61 65 66 71 68 71 69 68 73 73 72 76 77 80 88 85 74 73 70 71 72 70 69 66 70 74 82 76 85 89 104 121 142 165 162 177 174 181 183 191 192 193 196 204 215 210 215 215 211 216 227 227 226 228 232 233
5 10 5 354 351 359 11 10 5 9 6 2 359 356 360 8 27 27 23 16 26 29 23 51 51 23 20 34 40 44 39 44 52 62 65 66 72 78 74 71 70 67 62 62 63 62 66 69 58 49 48 63 68 76 84 72 75 82 90 98 108 137 136 156 168 189 183 185 190 202 209 209 201 203 219 216 215 214 218 222 225 232 234 237 236 237 240